1998-067RH

Last updated on Sun Feb 23 2020 00:02:06 GMT+0000 (Coordinated Universal Time)

1 45264U 98067RH 20053.55093217 .00003551 00000-0 70903-4 0 9990 2 45264 51.6414 200.6185 0007497 300.4439 59.5809 15.49695789 522
UTC large
Height (km)
Speed (km/s)
/
Latitude / Longitude
Inclination (degrees)
Orbital Period (minutes)
Azimuth
Elevation
Range (km)
Doppler Factor

Next 0 passes for location: London (51.5072 / 0.1276)

Sorry there are no passes over London.